Weather History for Miramar MCAS, CA

Change the Weather History Date:

Thursday, February 20, 2014

  Actual Average Record
Temperature  
Mean Temperature 62 °F -  
Max Temperature 80 °F 62 °F 80 °F (2014)
Min Temperature 44 °F 44 °F 37 °F (2006)
Degree Days  
Heating Degree Days 3    
Growing Degree Days 12 (Base 50)    
Moisture  
Dew Point 43 °F    
Average Humidity 60    
Maximum Humidity 90    
Minimum Humidity 23    
Precipitation  
Precipitation 0.00 in - - ()
Sea Level Pressure  
Sea Level Pressure 29.96 in    
Wind  
Wind Speed 5 mph (North)    
Max Wind Speed 10 mph    
Max Gust Speed -    
Visibility 9 miles    
Events      
Averages and records for this station are not official NWS values.
T = Trace of Precipitation, MM = Missing Value Source: NWS Daily Summary

Daily Weather History Graph

Daily Weather History Graph

Search for Another Location

Airport:

Trip Planner

Search our weather history database for the weather conditions in past years. The results will help you decide how hot, cold, wet, or windy it might be!

Date:

Astronomy

Feb. 20, 2014 Rise Set
Actual Time 6:26 AM PST 5:38 PM PST
Civil Twilight 6:01 AM PST 6:03 PM PST
Nautical Twilight 5:32 AM PST 6:32 PM PST
Astronomical Twilight 5:04 AM PST 7:00 PM PST
Moon 11:16 PM PST 9:31 AM PST
Length of Visible Light 12h 01m
Length of Day
11h 11m
Waning Gibbous, 70% of the Moon is Illuminated
Feb 20
Waning Gibbous
Feb 22
Last Quarter
Mar 1
New
Mar 8
First Quarter
Mar 16
Full

Hourly Weather History & Observations

Time (PST) Temp. Windchill Dew Point Humidity Pressure Visibility Wind Dir Wind Speed Gust Speed Precip Events Conditions
12:55 AM 46.9 °F - 44.1 °F 90% 29.95 in 7.0 mi NNE 4.6 mph - N/A   Scattered Clouds
1:55 AM 48.0 °F - 44.1 °F 86% 29.94 in 7.0 mi NE 3.5 mph - N/A   Partly Cloudy
2:55 AM 46.0 °F 43.1 °F 43.0 °F 89% 29.94 in 7.0 mi ENE 5.8 mph - N/A   Partly Cloudy
3:55 AM 46.9 °F - 44.1 °F 90% 29.93 in 6.0 mi NE 5.8 mph - N/A   Partly Cloudy
4:55 AM 46.0 °F 42.5 °F 43.0 °F 89% 29.93 in 7.0 mi ENE 6.9 mph - N/A   Partly Cloudy
5:55 AM 44.1 °F 42.5 °F 41.0 °F 89% 29.94 in 8.0 mi NE 3.5 mph - N/A   Partly Cloudy
6:55 AM 45.0 °F - 41.0 °F 86% 29.96 in 8.0 mi Calm Calm - N/A   Partly Cloudy
7:55 AM 55.0 °F - 48.9 °F 80% 29.98 in 6.0 mi Calm Calm - N/A   Scattered Clouds
8:55 AM 60.1 °F - 48.9 °F 67% 30.00 in 10.0 mi Calm Calm - N/A   Partly Cloudy
9:55 AM 66.0 °F - 48.0 °F 52% 30.01 in 10.0 mi NNW 5.8 mph - N/A   Partly Cloudy
10:55 AM 70.0 °F - 46.9 °F 44% 30.01 in 10.0 mi Variable 3.5 mph - N/A   Partly Cloudy
11:55 AM 78.1 °F - 39.9 °F 25% 29.99 in 10.0 mi North 8.1 mph - N/A   Scattered Clouds
12:55 PM 80.1 °F - 41.0 °F 25% 29.96 in 10.0 mi NW 9.2 mph - N/A   Scattered Clouds
1:37 PM 80.1 °F - 39.0 °F 23% 29.95 in 10.0 mi NW 8.1 mph - N/A   Scattered Clouds
1:55 PM 80.1 °F - 43.0 °F 27% 29.94 in 10.0 mi West 10.4 mph - N/A   Scattered Clouds
2:55 PM 79.0 °F - 43.0 °F 28% 29.93 in 10.0 mi WNW 9.2 mph - N/A   Mostly Cloudy
3:55 PM 72.0 °F - 45.0 °F 38% 29.93 in 10.0 mi WNW 6.9 mph - N/A   Mostly Cloudy
4:55 PM 71.1 °F - 39.0 °F 31% 29.93 in 10.0 mi NW 5.8 mph - N/A   Mostly Cloudy
5:55 PM 66.9 °F - 39.0 °F 36% 29.94 in 10.0 mi NNW 4.6 mph - N/A   Mostly Cloudy
6:55 PM 66.0 °F - 36.0 °F 33% 29.95 in 10.0 mi North 4.6 mph - N/A   Scattered Clouds
7:55 PM 57.9 °F - 39.0 °F 49% 29.97 in 10.0 mi SSE 4.6 mph - N/A   Scattered Clouds
8:55 PM 57.9 °F - 46.0 °F 65% 29.98 in 10.0 mi SE 6.9 mph - N/A   Scattered Clouds
9:55 PM 54.0 °F - 46.9 °F 77% 29.99 in 10.0 mi SSW 4.6 mph - N/A   Scattered Clouds
10:55 PM 53.1 °F - 48.0 °F 83% 29.98 in 8.0 mi ESE 4.6 mph - N/A   Scattered Clouds
11:55 PM 51.1 °F - 46.9 °F 86% 29.99 in 6.0 mi SW 3.5 mph - N/A   Scattered Clouds